Volver al catálogo

INSAT 3B

ActivoComunicacionesGEO
NORAD 26108·PAYLOAD·🇮🇳 India

Lanzado Mar 21, 2000 desde Guiana Space Centre

Loading…

TLE

ActualizadoSource: Space-Track

Época: Sep 14, 2026, 03:34 UTC

1 26108U 00016B   26257.14880374 -.00000077  00000-0  00000-0 0  9996
2 26108  11.0376  44.6641 0007789 210.4611 158.4913  0.99663718 52320

Sigue INSAT 3B en tiempo real con AllMySat

Download on the App Store